TimeEST,TemperatureF,Dew PointF,Humidity,Sea Level PressureIn,VisibilityMPH,Wind Direction,Wind SpeedMPH,Gust SpeedMPH,PrecipitationIn,Events,Conditions,WindDirDegrees,DateUTC
12:15 AM,51.8,44.6,76,30.26,10.0,SE,3.5,-,N/A,,Clear,140,2012-12-02 05:15:00
12:35 AM,53.6,44.6,72,30.27,10.0,SSE,3.5,-,N/A,,Clear,160,2012-12-02 05:35:00
12:55 AM,53.6,42.8,67,30.26,10.0,SSE,3.5,-,N/A,,Clear,160,2012-12-02 05:55:00
1:15 AM,53.6,42.8,67,30.25,10.0,South,3.5,-,N/A,,Clear,170,2012-12-02 06:15:00
1:35 AM,51.8,42.8,71,30.26,10.0,South,4.6,-,N/A,,Clear,180,2012-12-02 06:35:00
1:55 AM,53.6,42.8,67,30.25,10.0,South,3.5,-,N/A,,Clear,180,2012-12-02 06:55:00
2:15 AM,53.6,42.8,67,30.26,10.0,South,4.6,-,N/A,,Clear,180,2012-12-02 07:15:00
2:35 AM,53.6,42.8,67,30.26,10.0,South,5.8,-,N/A,,Clear,170,2012-12-02 07:35:00
2:55 AM,53.6,42.8,67,30.25,10.0,South,5.8,-,N/A,,Clear,170,2012-12-02 07:55:00
3:15 AM,53.6,42.8,67,30.25,10.0,South,5.8,-,N/A,,Clear,180,2012-12-02 08:15:00
3:35 AM,53.6,42.8,67,30.26,10.0,South,5.8,-,N/A,,Clear,180,2012-12-02 08:35:00
3:55 AM,53.6,42.8,67,30.26,10.0,South,5.8,-,N/A,,Clear,180,2012-12-02 08:55:00
4:15 AM,53.6,42.8,67,30.25,10.0,South,5.8,-,N/A,,Clear,180,2012-12-02 09:15:00
4:35 AM,53.6,42.8,67,30.24,10.0,South,6.9,-,N/A,,Scattered Clouds,180,2012-12-02 09:35:00
4:55 AM,53.6,42.8,67,30.24,10.0,South,6.9,-,N/A,,Mostly Cloudy,180,2012-12-02 09:55:00
5:15 AM,53.6,42.8,67,30.25,10.0,South,6.9,-,N/A,,Overcast,190,2012-12-02 10:15:00
5:35 AM,53.6,44.6,72,30.24,10.0,South,8.1,-,N/A,,Overcast,180,2012-12-02 10:35:00
5:55 AM,53.6,44.6,72,30.24,10.0,South,8.1,-,N/A,,Mostly Cloudy,190,2012-12-02 10:55:00
6:15 AM,55.4,44.6,67,30.24,10.0,South,9.2,-,N/A,,Clear,190,2012-12-02 11:15:00
6:35 AM,55.4,44.6,67,30.24,10.0,SSW,10.4,17.3,N/A,,Clear,200,2012-12-02 11:35:00
6:55 AM,55.4,44.6,67,30.24,10.0,SSW,9.2,16.1,N/A,,Clear,200,2012-12-02 11:55:00
7:15 AM,55.4,44.6,67,30.24,10.0,SSW,9.2,-,N/A,,Clear,200,2012-12-02 12:15:00
7:35 AM,55.4,44.6,67,30.24,10.0,SSW,9.2,16.1,N/A,,Clear,200,2012-12-02 12:35:00
7:55 AM,55.4,44.6,67,30.25,10.0,South,9.2,-,N/A,,Clear,190,2012-12-02 12:55:00
8:15 AM,55.4,44.6,67,30.25,10.0,South,9.2,-,N/A,,Clear,190,2012-12-02 13:15:00
8:35 AM,55.4,44.6,67,30.25,10.0,SSW,10.4,-,N/A,,Clear,210,2012-12-02 13:35:00
8:55 AM,57.2,46.4,67,30.25,10.0,SSW,11.5,17.3,N/A,,Clear,200,2012-12-02 13:55:00
9:15 AM,59.0,46.4,63,30.25,10.0,SSW,11.5,16.1,N/A,,Clear,200,2012-12-02 14:15:00
9:35 AM,59.0,46.4,63,30.25,10.0,SSW,10.4,18.4,N/A,,Clear,200,2012-12-02 14:35:00
9:55 AM,60.8,46.4,59,30.25,10.0,SSW,10.4,-,N/A,,Scattered Clouds,200,2012-12-02 14:55:00
10:15 AM,62.6,46.4,55,30.25,10.0,SSW,10.4,-,N/A,,Mostly Cloudy,200,2012-12-02 15:15:00
10:35 AM,62.6,46.4,55,30.25,10.0,SSW,8.1,-,N/A,,Mostly Cloudy,210,2012-12-02 15:35:00
10:55 AM,64.4,48.2,56,30.24,10.0,SW,11.5,-,N/A,,Overcast,220,2012-12-02 15:55:00
11:15 AM,64.4,48.2,56,30.23,10.0,SW,11.5,18.4,N/A,,Mostly Cloudy,220,2012-12-02 16:15:00
11:35 AM,66.2,46.4,49,30.23,10.0,SW,18.4,28.8,N/A,,Mostly Cloudy,230,2012-12-02 16:35:00
11:55 AM,68.0,46.4,46,30.22,10.0,SW,10.4,19.6,N/A,,Mostly Cloudy,220,2012-12-02 16:55:00
12:15 PM,68.0,46.4,46,30.22,10.0,SW,11.5,24.2,N/A,,Mostly Cloudy,230,2012-12-02 17:15:00
12:35 PM,68.0,48.2,49,30.20,10.0,WSW,16.1,28.8,N/A,,Overcast,240,2012-12-02 17:35:00
12:55 PM,68.0,48.2,49,30.20,10.0,WSW,19.6,24.2,N/A,,Overcast,240,2012-12-02 17:55:00
1:15 PM,68.0,48.2,49,30.20,10.0,WSW,19.6,25.3,N/A,,Overcast,250,2012-12-02 18:15:00
1:35 PM,68.0,48.2,49,30.19,10.0,SW,15.0,25.3,N/A,,Overcast,230,2012-12-02 18:35:00
1:55 PM,68.0,46.4,46,30.18,10.0,WSW,13.8,25.3,N/A,,Overcast,240,2012-12-02 18:55:00
2:15 PM,69.8,48.2,46,30.18,10.0,SW,15.0,24.2,N/A,,Overcast,230,2012-12-02 19:15:00
2:35 PM,68.0,48.2,49,30.18,10.0,WSW,16.1,23.0,N/A,,Overcast,240,2012-12-02 19:35:00
2:55 PM,68.0,48.2,49,30.17,10.0,WSW,19.6,25.3,N/A,,Overcast,240,2012-12-02 19:55:00
3:15 PM,68.0,46.4,46,30.17,10.0,SW,13.8,-,N/A,,Mostly Cloudy,230,2012-12-02 20:15:00
3:35 PM,68.0,48.2,49,30.17,10.0,WSW,16.1,21.9,N/A,,Mostly Cloudy,240,2012-12-02 20:35:00
4:15 PM,68.0,48.2,49,30.17,10.0,SW,8.1,-,N/A,,Overcast,230,2012-12-02 21:15:00
4:35 PM,66.2,48.2,52,30.18,10.0,WSW,11.5,-,N/A,,Overcast,240,2012-12-02 21:35:00
4:55 PM,66.2,48.2,52,30.17,10.0,SW,11.5,16.1,N/A,,Overcast,230,2012-12-02 21:55:00
5:15 PM,66.2,48.2,52,30.18,10.0,SW,8.1,-,N/A,,Overcast,230,2012-12-02 22:15:00
5:35 PM,66.2,48.2,52,30.18,10.0,SW,9.2,-,N/A,,Overcast,230,2012-12-02 22:35:00
5:55 PM,64.4,48.2,56,30.18,10.0,SW,10.4,-,N/A,,Overcast,230,2012-12-02 22:55:00
6:15 PM,64.4,48.2,56,30.19,10.0,SW,6.9,-,N/A,,Overcast,220,2012-12-02 23:15:00
6:35 PM,64.4,48.2,56,30.20,10.0,SW,6.9,-,N/A,,Overcast,220,2012-12-02 23:35:00
6:55 PM,64.4,48.2,56,30.20,10.0,SW,8.1,-,N/A,,Overcast,230,2012-12-02 23:55:00
7:15 PM,64.4,48.2,56,30.20,10.0,SW,6.9,-,N/A,,Overcast,220,2012-12-03 00:15:00
7:35 PM,64.4,48.2,56,30.20,10.0,SW,8.1,-,N/A,,Overcast,220,2012-12-03 00:35:00
7:55 PM,64.4,48.2,56,30.21,10.0,SW,6.9,-,N/A,,Overcast,220,2012-12-03 00:55:00
8:15 PM,64.4,48.2,56,30.21,10.0,SW,6.9,-,N/A,,Overcast,220,2012-12-03 01:15:00
8:35 PM,64.4,48.2,56,30.20,10.0,SW,9.2,-,N/A,,Overcast,230,2012-12-03 01:35:00
8:55 PM,64.4,48.2,56,30.21,10.0,SW,5.8,-,N/A,,Overcast,230,2012-12-03 01:55:00
9:15 PM,64.4,48.2,56,30.21,10.0,WSW,5.8,-,N/A,,Overcast,240,2012-12-03 02:15:00
9:35 PM,64.4,48.2,56,30.22,10.0,SW,5.8,-,N/A,,Overcast,230,2012-12-03 02:35:00
11:55 PM,62.6,48.2,59,30.23,10.0,Calm,Calm,-,N/A,,Overcast,0,2012-12-03 04:55:00